Weather History for KBIH - December, 2012

Change the Weather History Date:

Sunday, December 30, 2012

  Actual Average Record
Temperature  
Mean Temperature 28 °F 37 °F  
Max Temperature 40 °F 53 °F 69 °F (1998)
Min Temperature 16 °F 22 °F 2 °F (1990)
Degree Days  
Heating Degree Days 37 28  
Month to date heating degree days 864 821  
Since 1 July heating degree days 1685 1722  
Cooling Degree Days 0 0  
Month to date cooling degree days 0 0  
Year to date cooling degree days 1161 1104  
Moisture  
Dew Point 17 °F    
Average Humidity 64    
Maximum Humidity 84    
Minimum Humidity 44    
Precipitation  
Precipitation T in 0.03 in 1.07 in (1951)
Month to date precipitation 0.77 0.76  
Year to date precipitation 3.48 5.14  
Snow  
Snow 0.00 in 0.00 in 1.00 in (1992)
Month to date snowfall 2.8 1.2  
Since 1 July snowfall 2.8 1.6  
Snow Depth 0.00 in    
Sea Level Pressure  
Sea Level Pressure 30.04 in    
Wind  
Wind Speed 9 mph (North)    
Max Wind Speed 22 mph    
Max Gust Speed 31 mph    
Visibility 10 miles    
Events      
T = Trace of Precipitation, MM = Missing Value Source: NWS Daily Summary

Daily Weather History Graph

Daily Weather History Graph

Search for Another Location

Airport or City:

Trip Planner

Search our weather history database for the weather conditions in past years. The results will help you decide how hot, cold, wet, or windy it might be!

Date:

Astronomy

Dec. 30, 2012 Rise Set
Actual Time 7:07 AM PST 4:45 PM PST
Civil Twilight 6:38 AM PST 5:14 PM PST
Nautical Twilight 6:05 AM PST 5:47 PM PST
Astronomical Twilight 5:33 AM PST 6:18 PM PST
Moon 7:17 PM PST (12/30) 8:22 AM PST (12/30)
Length of Visible Light 10h 36m
Length of Day
9h 37m
Waning Gibbous, 95% of the Moon is Illuminated
Dec 30
Waning Gibbous
Jan 4
Last Quarter
Jan 11
New
Jan 18
First Quarter
Jan 26
Full

Hourly Weather History & Observations

Time (PST) Temp. Windchill Dew Point Humidity Pressure Visibility Wind Dir Wind Speed Gust Speed Precip Events Conditions
12:56 AM 18.0 °F 9.8 °F 14.0 °F 84% 30.03 in 10.0 mi NW 5.8 mph - N/A   Clear
1:56 AM 19.9 °F 13.4 °F 15.1 °F 81% 30.02 in 10.0 mi NW 4.6 mph - N/A   Mostly Cloudy
2:56 AM 19.9 °F - 16.0 °F 85% 30.02 in 10.0 mi Calm Calm - N/A   Overcast
3:56 AM 21.0 °F 16.2 °F 17.1 °F 85% 30.00 in 10.0 mi NNE 3.5 mph - N/A   Overcast
4:56 AM 21.9 °F 15.7 °F 17.1 °F 82% 30.00 in 10.0 mi WNW 4.6 mph - N/A   Overcast
5:56 AM 21.9 °F 17.2 °F 18.0 °F 85% 30.00 in 10.0 mi NNE 3.5 mph - N/A   Overcast
6:56 AM 23.0 °F 18.4 °F 18.0 °F 81% 30.01 in 10.0 mi WNW 3.5 mph - N/A   Overcast
7:56 AM 26.1 °F - 19.9 °F 78% 30.01 in 10.0 mi Calm Calm - N/A   Overcast
8:56 AM 28.0 °F - 21.0 °F 75% 30.04 in 10.0 mi Calm Calm - N/A   Overcast
9:56 AM 30.9 °F - 21.9 °F 69% 30.05 in 10.0 mi Calm Calm - N/A   Overcast
10:56 AM 34.0 °F 31.0 °F 21.9 °F 61% 30.04 in 10.0 mi NW 3.5 mph - N/A   Overcast
11:56 AM 36.0 °F 32.1 °F 21.9 °F 57% 30.01 in 10.0 mi Variable 4.6 mph - N/A   Partly Cloudy
12:56 PM 37.9 °F - 21.0 °F 51% 30.00 in 10.0 mi Calm Calm - N/A   Clear
1:56 PM 39.9 °F 32.5 °F 19.0 °F 43% 29.97 in 10.0 mi North 12.7 mph 19.6 mph N/A   Mostly Cloudy
2:56 PM 39.0 °F 30.3 °F 19.0 °F 45% 29.97 in 10.0 mi North 16.1 mph 24.2 mph 0.00 in   Clear
3:56 PM 35.1 °F 25.5 °F 18.0 °F 50% 30.00 in 10.0 mi North 15.0 mph - N/A   Scattered Clouds
4:56 PM 32.0 °F 20.5 °F 17.1 °F 54% 30.02 in 10.0 mi North 18.4 mph - N/A   Mostly Cloudy
5:56 PM 30.0 °F 18.7 °F 16.0 °F 56% 30.05 in 10.0 mi North 16.1 mph 25.3 mph N/A   Scattered Clouds
6:56 PM 30.0 °F 17.5 °F 15.1 °F 54% 30.08 in 10.0 mi North 19.6 mph 27.6 mph N/A   Clear
7:56 PM 28.9 °F 17.7 °F 14.0 °F 54% 30.10 in 10.0 mi North 15.0 mph 23.0 mph N/A   Clear
8:56 PM 28.0 °F 14.9 °F 14.0 °F 56% 30.13 in 10.0 mi North 19.6 mph 25.3 mph N/A   Clear
9:56 PM 27.0 °F 14.3 °F 12.9 °F 56% 30.14 in 10.0 mi North 17.3 mph - N/A   Clear
10:56 PM 26.1 °F 14.5 °F 12.9 °F 58% 30.14 in 10.0 mi North 13.8 mph - N/A   Clear
11:56 PM 24.1 °F 13.7 °F 12.0 °F 60% 30.16 in 10.0 mi North 10.4 mph - N/A   Clear